Probability
0 0 0 0 0 0 0 0 0 0 0 0 0 0 0 0 0 0 0 0 0 0 0 0 0 0 0 0 0 0 0 0 0 0 0 0 0 0 0 0 0 0 0
0 0 0 0 0 0 0 0 0 0 0 0 0 0 0 0 0 0 0 0 0 0 0 0 0 0 0 0 0 0 0 0 0 0 0 0 0 0 0 0 0 0 0
0 0 0 0 0 0 0 0 0 0 0 0 0 0 0 0 0 0 0 0 0 0 0 0 0 0 0 0 0 0 0 0 0 0 0 0 0 0 0 0 0 0 0
0 0 0 0 0 0 0 0 0 0 0 0 0 0 0 0 0 0 0 0 0 0 0 0 0 0 0 0 0 0 0 0 0 0 0 0 0 0 0 0 0 0 0
0 0 0 0 0 0 0 0 0 0 0 0 0 0 0 0 0 0 0 0 0 0 0 0 0 0 0 0 0 0 0 0 0 0 0 0 0 0 0 0 0 0 0
0 0 0 0 0 0 0 0 0 0 0 0 0 0 0 0 0 0 0 0 0 0 0 0 0 0 0 0 0 0 0 0 0 0 0 0 0 0 0 0 0 0 0
0 0 0 0 0 0 0 0 0 0 0 0 0 0 0 0 0 0 0 0 0 0 0 0 0 0 0 0 0 0 0 0 0 0 0 0 0 0 0 0 0 0 0
0 0 0 0 0 0 0 0 0 0 0 0 0 0 0 0 0 0 0 0 0 0 0 0 0 0 0 0 0 0 0 0 0 0 0 0 0 0 0 0 0 0 0
0 0 0 0 0 0 0 0 0 0 0 0 0 0 0 0 0 0 0 0 0 0 0 0 0 0 0 0 0 0 0 0 0 0 0 0 0 0 0 0 0 0 0
0 0 0 0 0 0 0 0 0 0 0 0 0 0 0 0 0 0 0 0 0 0 0 0 0 0 0 0 0 0 0 0 0 0 0 0 0 0 0 0 0 0 0
0 0 0 0 0 0 0 0 0 0 0 0 0 0 0 0 0 0 0 0 0 0 0 0 0 0 0 0 0 0 0 0 0 0 0 0 0 0 0 0 0 0 0
0 0 0 0 0 0 0 0 0 0 0 0 0 0 0 0 0 0 0 0 0 0 0 0 0 0 0 0 0 0 0 0 0 0 0 0 0 0 0 0 0 0 0
0 0 0 0 0 0 0 0 0 0 0 0 0 0 0 0 0 0 0 0 0 0 0 0 0 0 0 0 0 0 0 0 0 0 0 0 0 0 0 0 0 0 0
0 0 0 0 0 0 0 0 0 0 0 0 0 0 0 0 0 0 0 0 0 0 0 0 0 0 0 0 0 0 0 0 0 0 0 0 0 0 0 0 0 0 0
0 0 0 0 0 0 0 0 0 0 0 0 0 0 0 0 0 0 0 0 0 0 0 0 0 0 0 0 0 0 0 0 0 0 0 0 0 0 0 0 0 0 0
0 0 0 0 0 0 0 0 0 0 0 0 0 0 0 0 0 0 0 0 0 0 0 0 0 0 0 0 0 0 0 0 0 0 0 0 0 0 0 0 0 0 0
0 0 0 0 0 0 0 0 0 0 0 0 0 0 0 0 0 0 0 0 0 0 0 0 0 0 0 0 0 0 0 0 0 0 0 0 0 0 0 0 0 0 0
0 0 0 0 0 0 0 0 0 0 0 0 0 0 0 0 0 0 0 0 0 0 0 0 0 0 0 0 0 0 0 0 0 0 0 0 0 0 0 0 0 0 0
0 0 0 0 0 0 0 0 0 0 0 0 0 0 0 0 0 0 0 0 0 0 0 0 0 0 0 0 0 0 0 0 0 0 0 0 0 0 0 0 0 0 0
0 0 0 0 0 0 0 0 0 0 0 0 0 0 0 0 0 0 0 0 0 0 0 0 0 0 0 0 0 0 0 0 0 0 0 0 0 0 0 0 0 0 0
0 0 0 0 0 0 0 0 0 0 0 0 0 0 0 0 0 0 0 0 0 0 0 0 0 0 0 0 0 0 0 0 0 0 0 0 0 0 0 0 0 0 0
0 0 0 0 0 0 0 0 0 0 0 0 0 0 0 0 0 0 0 0 0 0 0 0 0 0 0 0 0 0 0 0 0 0 0 0 0 0 0 0 0 0 0
0 0 0 0 0 0 0 0 0 0 0 0 0 0 0 0 0 0 0 0 0 0 0 0 0 0 0 0 0 0 0 0 0 0 0 0 0 0 0 0 0 0 0
0 0 0 0 0 0 0 0 0 0 0 0 0 0 0 0 0 0 0 0 0 0 0 0 0 0 0 0 0 0 0 0 0 0 0 0 0 0 0 0 0 0 0
0 0 0 0 0 0 0 0 0 0 0 0 0 0 0 0 0 0 0 0 0 0 0 0 0 0 0 0 0 0 0 0 0 0 0 0 0 0 0 0 0 0 0
0 0 0 0 0 0 0 0 0 0 0 0 0 0 0 0 0 0 0 0 0 0 0 0 0 0 0 0 0 0 0 0 0 0 0 0 0 0 0 0 0 0 0
Height
5793 5794 5795 5797 5799 5800 5801 5802 5801 5800 5799 5797 5795 5793 5792 5793 5793 5793 5792 5791 5791 5790 5790 5789 5790 5791 5793 5794 5795 5797 5799 5803 5806 5808 5811 5814 5816 5819 5820 5822 5824 5826 5829
5789 5791 5793 5795 5796 5796 5796 5795 5794 5793 5792 5790 5788 5786 5785 5785 5786 5786 5785 5786 5786 5786 5786 5785 5785 5787 5788 5789 5791 5793 5795 5798 5800 5803 5806 5809 5811 5814 5816 5818 5820 5822 5824
5787 5789 5790 5791 5791 5791 5791 5789 5788 5786 5785 5783 5782 5780 5779 5778 5779 5780 5780 5780 5781 5781 5782 5782 5782 5782 5783 5784 5786 5789 5791 5793 5795 5798 5800 5802 5805 5808 5810 5813 5815 5817 5819
5785 5786 5787 5787 5788 5787 5786 5785 5783 5781 5779 5777 5775 5773 5772 5772 5772 5773 5774 5774 5775 5776 5777 5778 5778 5778 5779 5780 5782 5784 5786 5788 5790 5793 5794 5796 5799 5801 5804 5806 5808 5811 5813
5783 5784 5784 5785 5784 5783 5781 5780 5779 5776 5773 5771 5768 5766 5765 5764 5765 5766 5767 5768 5769 5770 5771 5772 5774 5774 5775 5775 5777 5778 5781 5783 5785 5787 5789 5791 5792 5794 5797 5799 5801 5804 5807
5782 5782 5782 5781 5780 5779 5777 5775 5773 5771 5768 5766 5763 5761 5760 5759 5759 5759 5760 5761 5762 5763 5763 5765 5767 5768 5769 5770 5771 5773 5775 5777 5779 5781 5782 5784 5786 5787 5788 5790 5793 5797 5800
5780 5780 5779 5778 5776 5775 5772 5770 5768 5766 5763 5761 5759 5756 5755 5754 5753 5752 5753 5753 5754 5755 5756 5757 5758 5760 5762 5763 5764 5766 5767 5769 5772 5774 5775 5776 5778 5779 5780 5782 5785 5788 5791
5778 5777 5775 5773 5772 5769 5767 5764 5762 5760 5758 5756 5754 5752 5750 5749 5748 5747 5747 5747 5747 5747 5748 5749 5751 5752 5754 5756 5757 5759 5760 5762 5764 5766 5767 5769 5770 5771 5772 5773 5775 5779 5783
5775 5774 5772 5770 5768 5765 5762 5760 5758 5755 5753 5751 5749 5747 5745 5744 5743 5742 5742 5741 5741 5741 5741 5742 5743 5745 5747 5748 5750 5752 5753 5755 5757 5758 5760 5761 5763 5764 5764 5765 5766 5769 5773
5772 5770 5768 5766 5763 5761 5759 5756 5753 5750 5748 5746 5744 5742 5740 5739 5738 5737 5736 5735 5734 5734 5734 5735 5736 5738 5740 5741 5743 5745 5746 5748 5750 5751 5753 5754 5755 5756 5757 5758 5759 5761 5763
5767 5765 5763 5761 5758 5756 5753 5751 5748 5745 5743 5741 5739 5737 5735 5733 5731 5730 5728 5727 5726 5725 5726 5727 5728 5730 5732 5734 5736 5738 5739 5741 5743 5744 5746 5747 5749 5750 5751 5753 5753 5754 5756
5764 5762 5759 5756 5753 5750 5748 5745 5743 5740 5738 5736 5734 5731 5729 5726 5724 5722 5721 5719 5718 5717 5716 5716 5717 5720 5723 5726 5729 5731 5734 5735 5737 5738 5740 5741 5743 5744 5746 5747 5747 5748 5749
5763 5760 5757 5753 5750 5746 5743 5740 5738 5735 5733 5731 5728 5726 5723 5721 5719 5716 5714 5711 5709 5707 5705 5704 5704 5707 5711 5716 5720 5724 5727 5730 5732 5733 5734 5736 5737 5738 5739 5740 5741 5741 5741
5762 5759 5756 5752 5748 5744 5740 5737 5734 5731 5728 5726 5723 5721 5718 5716 5713 5710 5707 5703 5700 5696 5692 5689 5689 5692 5698 5705 5711 5717 5721 5724 5726 5728 5729 5730 5731 5732 5733 5733 5734 5734 5734
5763 5760 5756 5752 5748 5744 5739 5736 5732 5729 5726 5723 5720 5718 5715 5712 5708 5705 5700 5696 5691 5686 5681 5678 5678 5682 5689 5698 5705 5710 5715 5718 5720 5722 5724 5725 5726 5726 5726 5726 5726 5726 5726
5765 5761 5758 5753 5749 5744 5740 5736 5732 5729 5725 5722 5719 5716 5713 5709 5705 5701 5696 5691 5687 5683 5679 5676 5677 5681 5687 5694 5700 5706 5711 5714 5716 5718 5720 5721 5721 5721 5721 5720 5720 5720 5719
5766 5763 5759 5755 5751 5746 5742 5737 5734 5730 5726 5723 5719 5716 5712 5707 5702 5698 5693 5689 5686 5683 5681 5681 5682 5685 5689 5694 5699 5704 5708 5711 5714 5715 5716 5717 5717 5716 5716 5716 5715 5714 5713
5768 5764 5761 5757 5753 5749 5744 5740 5736 5732 5728 5724 5721 5717 5712 5706 5700 5695 5692 5689 5687 5686 5686 5686 5687 5690 5693 5697 5701 5705 5708 5711 5712 5713 5714 5714 5713 5713 5711 5710 5709 5707 5706
5769 5766 5763 5760 5756 5752 5748 5743 5739 5735 5731 5727 5723 5719 5713 5707 5700 5695 5693 5691 5690 5690 5690 5691 5693 5695 5698 5701 5704 5707 5710 5711 5712 5713 5712 5711 5710 5708 5707 5705 5702 5700 5698
5771 5768 5766 5762 5759 5755 5751 5747 5743 5739 5735 5731 5727 5722 5717 5710 5704 5700 5697 5696 5696 5696 5697 5698 5700 5702 5704 5706 5708 5710 5711 5712 5712 5712 5711 5709 5707 5704 5701 5698 5695 5692 5688
5774 5771 5768 5765 5762 5758 5755 5751 5748 5744 5740 5736 5732 5728 5723 5717 5712 5708 5706 5705 5705 5705 5705 5706 5707 5708 5709 5711 5712 5713 5713 5713 5712 5711 5709 5706 5703 5699 5695 5691 5688 5684 5680
5777 5774 5771 5768 5765 5762 5758 5755 5751 5748 5744 5741 5738 5734 5730 5726 5722 5719 5716 5715 5714 5714 5714 5714 5714 5715 5715 5715 5715 5716 5715 5714 5712 5710 5707 5703 5699 5695 5691 5686 5682 5678 5674
5779 5776 5773 5770 5768 5765 5762 5759 5755 5752 5749 5746 5743 5740 5737 5734 5731 5728 5726 5724 5723 5722 5721 5721 5720 5720 5720 5719 5718 5718 5716 5715 5712 5710 5706 5702 5698 5693 5689 5684 5679 5675 5671
5781 5779 5776 5773 5770 5768 5765 5762 5759 5756 5753 5751 5748 5746 5743 5741 5738 5736 5733 5731 5730 5728 5727 5726 5725 5724 5723 5722 5721 5719 5717 5715 5712 5709 5706 5702 5698 5693 5688 5683 5678 5673 5669
5783 5781 5779 5776 5773 5770 5768 5765 5763 5760 5757 5754 5752 5750 5748 5746 5743 5741 5739 5737 5735 5733 5732 5730 5729 5728 5726 5724 5722 5720 5718 5715 5712 5709 5706 5702 5698 5693 5688 5683 5678 5673 5668
5784 5783 5781 5778 5776 5773 5770 5768 5765 5763 5761 5758 5756 5753 5751 5749 5747 5745 5743 5741 5739 5738 5736 5734 5732 5730 5729 5726 5724 5722 5719 5716 5713 5710 5707 5703 5698 5694 5689 5684 5679 5673 5668
Wind_Speed
20 17 16 16 17 21 24 26 28 29 30 30 29 28 27 26 24 23 21 20 19 18 16 15 15 15 16 16 16 18 22 26 28 27 26 23 22 21 20 19 17 20 24
12 12 13 16 19 22 23 24 24 25 26 27 27 26 24 23 23 23 21 19 19 18 16 15 15 16 16 16 15 16 19 24 27 30 31 29 27 25 23 22 21 22 22
9 12 15 16 16 16 17 18 20 20 21 22 23 25 25 23 21 22 21 19 19 19 18 17 16 15 16 17 16 15 17 20 24 27 29 31 30 28 27 26 26 25 25
11 13 14 13 13 14 16 17 18 18 18 20 21 23 25 24 22 22 23 21 20 21 22 21 20 17 16 17 18 18 18 19 22 23 25 28 30 30 29 29 30 30 29
13 14 14 14 14 15 17 19 18 17 17 19 20 20 21 24 24 24 25 25 23 23 24 24 24 22 21 20 20 20 20 20 22 24 26 26 27 29 30 32 32 32 32
14 14 14 15 16 17 19 20 18 16 16 17 17 18 20 23 25 26 26 26 26 26 26 26 26 26 24 24 24 24 23 23 24 25 27 28 29 31 33 35 36 34 34
12 13 14 15 17 19 19 17 16 16 17 17 17 16 17 18 20 22 23 24 26 27 27 26 26 26 26 26 25 25 25 25 25 24 25 27 28 30 32 35 38 39 38
12 13 15 17 18 18 18 17 16 17 18 19 19 17 16 16 16 16 17 19 20 22 24 25 25 26 26 26 25 25 26 26 25 25 25 26 27 26 28 32 36 40 41
13 14 15 17 18 18 19 19 19 18 18 18 18 18 17 17 17 18 19 21 22 21 22 24 25 26 26 25 26 26 25 25 25 25 25 26 26 26 26 28 32 37 41
13 15 17 18 20 20 21 21 20 18 16 16 16 16 16 16 17 18 20 21 23 22 23 25 25 25 24 22 23 23 23 23 23 24 24 25 25 25 25 25 27 33 40
16 17 19 21 22 22 22 21 20 18 16 15 15 16 17 17 18 19 21 23 24 25 26 28 29 28 26 24 22 21 20 20 21 21 22 22 22 21 21 21 22 25 31
18 19 20 21 22 21 21 20 19 16 15 15 16 17 18 19 19 20 21 22 24 27 29 32 33 33 31 29 25 23 20 19 19 19 20 21 21 20 21 21 22 24 24
18 19 21 21 21 20 19 18 17 15 15 15 16 16 17 17 18 19 20 21 23 26 29 32 35 37 36 34 30 26 22 20 19 19 20 21 22 24 25 26 26 26 27
20 21 21 20 19 18 17 15 14 14 14 14 14 15 16 16 16 18 20 22 24 27 29 31 33 34 35 34 31 27 24 21 20 20 21 22 23 25 27 29 30 31 31
19 19 19 19 18 16 15 14 13 13 13 12 13 13 13 14 14 15 17 18 19 19 19 18 19 22 25 27 26 24 22 20 19 20 21 22 23 24 25 26 28 29 29
17 18 19 19 19 17 15 14 14 13 13 13 13 13 14 15 16 17 17 15 14 12 9 3 4 10 14 17 19 19 18 17 17 18 19 20 22 22 22 21 22 23 24
17 18 19 20 20 19 18 17 16 16 15 15 16 16 17 17 17 17 15 12 11 9 7 8 8 9 10 12 14 14 13 13 14 14 15 16 16 18 19 21 23 25 26
17 18 20 20 21 21 21 20 20 19 18 18 18 19 20 20 19 16 13 11 10 9 10 11 12 11 11 11 10 9 8 8 9 10 11 14 16 18 20 21 23 25 26
17 18 19 20 21 21 22 22 22 22 21 21 21 23 24 24 21 17 14 13 13 12 13 13 13 13 13 12 10 7 4 2 5 8 11 14 16 19 21 23 25 27 28
17 17 18 19 19 20 20 21 22 23 23 23 24 26 27 28 25 22 21 21 20 18 16 16 16 16 14 12 10 6 4 3 5 8 10 13 16 19 22 24 26 28 30
15 16 16 17 18 18 19 20 21 22 23 24 25 27 29 30 29 28 28 28 28 26 23 20 18 17 15 13 11 10 9 8 9 10 13 16 18 20 22 23 24 25 26
14 14 15 16 17 18 19 19 20 21 22 24 25 27 28 29 30 30 29 28 28 27 25 23 21 19 17 16 15 14 13 13 14 16 18 19 20 20 20 20 20 21 21
13 13 14 15 16 17 18 19 19 20 21 22 24 25 26 27 27 27 27 26 25 24 23 21 20 19 18 17 17 16 16 17 17 18 19 20 21 21 21 21 20 20 20
11 12 13 15 16 18 19 19 19 19 19 20 21 22 22 23 24 24 24 23 22 21 20 19 18 18 17 17 17 17 18 18 19 19 19 20 22 23 23 23 23 23 23
9 10 11 13 15 17 18 19 18 18 18 18 18 18 19 20 20 21 21 20 20 19 18 17 17 16 17 17 18 18 19 20 21 21 22 22 22 23 24 24 25 25 25
7 7 8 10 13 15 17 17 16 17 17 17 17 16 16 16 17 18 19 19 19 18 18 17 17 17 17 17 17 17 18 19 20 21 23 23 24 24 25 25 26 26 27
Wind_Direction
225 231 236 250 265 277 285 288 292 296 296 296 295 294 293 287 280 280 282 279 272 266 262 258 254 259 259 258 255 245 231 223 221 226 232 236 238 238 239 240 240 238 239
229 245 261 273 282 289 295 300 304 305 302 297 293 293 295 289 279 276 276 271 264 260 258 254 250 253 253 252 251 243 234 226 225 227 234 238 240 242 245 245 246 244 241
268 282 291 297 298 306 315 318 316 311 305 299 293 289 288 286 277 272 271 267 259 254 254 254 252 251 247 245 245 246 242 234 230 231 235 238 241 243 245 246 247 248 246
296 303 316 323 321 322 326 326 321 312 301 296 293 287 280 276 272 269 267 265 259 253 251 252 253 251 247 246 243 242 244 242 235 235 240 244 244 243 243 244 246 245 246
299 310 321 325 323 320 318 315 310 304 299 296 294 287 277 270 266 266 266 265 262 255 250 249 250 251 248 246 243 242 244 246 244 244 247 249 247 246 245 245 246 245 243
301 307 315 321 322 321 316 309 302 298 298 299 299 293 282 273 267 263 262 264 264 259 254 249 248 250 251 248 245 244 246 248 250 251 251 252 252 250 250 249 246 245 244
310 311 315 318 320 321 321 315 307 303 301 300 297 292 287 281 272 264 260 262 263 261 257 253 249 249 250 250 248 246 247 250 252 255 256 256 256 254 253 253 248 243 242
312 313 316 319 322 325 328 326 318 308 302 299 296 290 283 278 275 273 269 270 272 267 259 254 252 250 249 249 249 249 249 250 252 254 258 260 261 262 260 257 252 245 241
314 313 312 314 317 321 322 321 316 308 300 296 293 290 286 281 278 276 274 274 275 272 263 255 251 250 249 250 252 253 253 253 253 254 256 258 261 263 266 264 256 248 244
321 318 315 314 313 313 314 314 312 307 301 296 294 290 287 284 282 279 275 272 270 268 263 257 253 251 250 251 253 255 257 257 256 256 257 257 260 263 264 263 257 250 245
327 322 319 317 316 314 314 314 313 306 298 293 292 290 287 284 282 279 275 272 269 266 262 259 257 255 252 250 252 255 257 258 259 258 258 257 257 258 257 255 254 252 249
335 332 328 325 323 321 320 318 315 308 299 293 292 291 289 287 286 283 281 278 274 270 266 261 257 252 249 248 249 251 253 253 255 255 255 253 250 249 249 251 253 254 255
345 340 335 332 331 330 329 325 321 315 308 304 301 300 299 298 297 295 290 286 283 280 275 269 260 251 245 244 245 248 249 250 251 251 250 249 247 247 249 252 254 256 258
349 347 346 346 343 342 341 338 334 328 322 318 314 313 313 312 311 309 302 295 294 291 284 275 262 250 242 238 239 241 244 246 247 249 249 249 250 251 253 256 260 263 265
0 1 1 0 359 358 355 351 348 343 338 333 329 328 329 330 331 329 326 317 314 311 300 282 257 238 229 227 230 233 237 244 250 251 250 250 252 255 260 263 265 266 267
10 13 13 14 15 14 11 7 5 3 0 357 354 352 349 344 341 339 340 341 341 344 345 336 193 190 198 207 212 219 228 239 245 247 252 256 258 262 266 268 270 271 272
18 19 21 23 25 24 22 19 18 16 12 8 5 2 356 349 346 345 349 358 11 23 48 80 108 131 157 176 189 202 214 226 240 252 259 262 265 268 271 272 274 275 276
24 24 25 28 29 30 30 28 26 24 22 18 16 15 9 1 358 2 11 25 40 56 76 91 103 113 125 141 159 178 197 219 240 257 270 276 280 282 282 282 282 282 281
28 27 28 29 31 33 33 32 31 31 30 28 26 24 19 16 19 30 44 59 68 78 87 96 101 102 105 110 116 127 149 221 273 286 291 294 295 295 294 293 291 290 289
30 29 29 28 28 29 31 31 31 32 32 31 30 29 28 30 39 54 66 73 78 85 93 95 94 94 94 94 92 84 61 15 343 330 322 316 311 306 303 301 298 296 295
28 28 28 27 26 26 28 30 32 33 34 34 35 36 37 41 52 64 73 76 78 81 87 90 88 86 84 81 76 68 56 39 18 359 346 337 330 324 318 313 308 305 302
23 24 25 28 27 27 28 31 33 35 37 37 39 41 45 49 56 65 72 76 77 79 81 81 80 79 75 70 64 56 45 31 19 9 1 354 349 345 340 335 328 323 319
20 23 27 30 30 28 28 29 31 34 38 39 39 42 47 52 57 61 66 70 73 74 74 73 70 67 63 57 51 43 34 26 21 16 11 7 4 2 360 356 352 346 341
21 28 34 35 33 31 29 30 32 35 38 39 40 42 46 50 55 58 61 63 65 65 64 62 59 55 51 45 39 33 28 25 22 19 16 14 12 11 9 6 2 357 352
18 25 32 32 30 30 29 28 29 32 35 37 39 42 45 48 50 52 54 55 55 54 53 50 48 44 40 35 31 28 26 24 23 22 21 18 16 15 14 13 10 8 4
3 12 20 24 24 23 23 23 25 28 32 35 37 39 41 44 44 45 46 47 45 44 41 38 36 33 30 26 24 23 22 22 24 25 24 24 23 21 19 17 16 14 12